Regional Weather Roundup
Issued by NWS

Home | Current Version | Previous Version | Text Only | Print | Product List | Glossary Off
Versions: 1 2 3 4 5 6 7 8 9 10 11 12 13 14 15 16 17 18 19 20 21 22 23 24 25 26 27 28 29 30 31 32 33 34 35 36 37 38 39 40 41 42 43 44 45 46 47 48 49 50

000
ASUS43 KIND 280409
RWRIN

WEATHER ROUNDUP FOR INDIANA
NATIONAL WEATHER SERVICE INDIANAPOLIS IN
1200 AM EDT FRI JUL 28 2017

NOTE: "FAIR" INDICATES FEW OR NO CLOUDS BELOW 12,000 FEET WITH NO
SIGNIFICANT WEATHER AND/OR OBSTRUCTIONS TO VISIBILITY.

* - STATION DOES NOT REPORT WEATHER SUCH AS PRECIPITATION OR FOG.

+ - STATION NOT QUALITY CONTROLLED BY THE NATIONAL WEATHER SERVICE.
    USE DATA WITH CAUTION...ESPECIALLY DEWPOINT AND RELATIVE
    HUMIDITY OBSERVATIONS.

INZ001>003-010>013-019-020-280500-
NORTHWEST INDIANA

CITY           SKY/WX    TMP DP  RH WIND       PRES   REMARKS
GARY /AIRPORT/ MOCLDY    73  66  80 NE6       29.92F
KNOX *+        MOCLDY    68  66  94 N5        29.90S
LA PORTE +     CLOUDY    72  67  83 NE8       29.92S
MICHIGAN CITY+ MOCLDY    70  68  94 CALM      29.92S
MONTICELLO +   CLOUDY    71  68  88 N6        29.88S
RENSSELAER +   CLEAR     68  64  88 N6        29.90S
VALPARAISO     MOCLDY    72  68  87 N7        29.91F

$$

LMZ046-743>745-280500-
SOUTHERN LAKE MICHIGAN

STATION/POSITION TIME  TEMP    WIND        PRES    WAVE
                       AIR SEA DIR/SP/G            HT
                 (UTC) (F)     (DEG/KT/KT) (MB)    (FT)
BURNS HARBOR     0340   74      30/ 11/ 15 1013.5F
MICHIGAN CITY    0340   73      30/ 12/ 14   N/A
5NW MICH CITY    0400   74 74   40/ 12/ 16   N/A     6

$$

INZ004-005-014>016-021>024-280500-
NORTH CENTRAL INDIANA

CITY           SKY/WX    TMP DP  RH WIND       PRES   REMARKS
GOSHEN         PTCLDY    74  66  76 NE8       29.90S
LOGANSPORT +   PTCLDY    70  68  94 N7        29.89S
PERU/GRISSOM   MOCLDY    74  74  99 N5        29.87F
ROCHESTER +    MOCLDY    73  70  88 CALM      29.89S
SOUTH BEND     CLOUDY    71  67  87 N6        29.91F
WARSAW +       PTCLDY    72  70  94 E7        29.89S

$$

INZ006>009-017-018-025>027-280500-
NORTHEAST INDIANA

CITY           SKY/WX    TMP DP  RH WIND       PRES   REMARKS
AUBURN +       CLEAR     70  68  94 NE3       29.91S FOG
FORT WAYNE     MOCLDY    73  69  87 E5        29.88F
HUNTINGTON +   CLEAR     71  70  96 CALM      29.88F
KENDALLVILLE + CLOUDY    73  68  82 E6        29.91S

$$

INZ028-029-035-036-043>045-051>053-280500-
WEST CENTRAL INDIANA

CITY           SKY/WX    TMP DP  RH WIND       PRES   REMARKS
GREENCASTLE +  MOCLDY    73  72  94 N3        29.87F
LAFAYETTE      CLOUDY    72  68  87 N8        29.87F
TERRE HAUTE    CLOUDY    76  72  87 N5        29.86F

$$

INZ030>032-037>040-046>048-054>057-064-065-280500-
CENTRAL INDIANA

CITY           SKY/WX    TMP DP  RH WIND       PRES   REMARKS
CP ATTERBURY +   N/A     72  70  94 CALM      29.87S
FRANKFORT +    MOCLDY    74  72  92 N6        29.90F
GREENWOOD *+   CLOUDY   N/A N/A N/A CALM      29.87F
INDIANAPOLIS   CLOUDY    74  72  93 NW5       29.85F
-EAGLE CREEK   CLOUDY    75  72  90 CALM      29.86F
KOKOMO +       CLEAR     73  71  93 N5        29.88F
MARION +       MOCLDY    72  70  94 CALM      29.89S
MT COMFORT *+  CLOUDY    72  72 100 CALM      29.88S
SHELBYVILLE    CLOUDY    75  71  87 N3        29.85F
ZIONSVILLE +   MOCLDY    73  72  98 CALM      29.88F

$$

INZ033-034-041-042-049-050-058-059-280500-
EAST CENTRAL INDIANA

CITY           SKY/WX    TMP DP  RH WIND       PRES   REMARKS
MUNCIE         CLOUDY    75  72  90 CALM      29.88F
RICHMOND +     CLOUDY    70  70 100 CALM      29.89F

$$

INZ060-061-067>069-081>083-085>088-280500-
SOUTHWEST INDIANA

CITY           SKY/WX    TMP DP  RH WIND       PRES   REMARKS
EVANSVILLE     HVY RAIN  76  73  91 CALM      29.86S FOG
HUNTINGBURG *+ TSTM      73  73 100 W10       29.88R FOG

$$

INZ062-063-066-070>080-084-089>092-280500-
SOUTH CENTRAL AND SOUTHEAST INDIANA

CITY           SKY/WX    TMP DP  RH WIND       PRES   REMARKS
BEDFORD +      CLOUDY    73  72  94 CALM      29.86F
BLOOMINGTON    PTCLDY    74  71  91 CALM      29.87S FOG
MADISON *+     CLOUDY    75  72  88 CALM      29.88F
NORTH VERNON + CLOUDY    73  72  94 CALM      29.87F
SEYMOUR +      LGT RAIN  75  73  94 SW5       29.86F

$$





USA.gov is the U.S. government's official web portal to all federal, state and local government web resources and services.